weather.gov     
National Weather Service

Regional Weather Roundup
NWS Homepage
This page is being discontinued on March 12, 2014.
The same data is available at this site. Please update your bookmarks.
Thank you, and we apologize for the inconvenience.
Please send an email to SR-SRH.Webmaster@noaa.gov with any concerns.


Current Version
Previous Version:    01  02  03  04  05  06  07  08  09  10  11  12  13  14  15  16  17  18  19  20  21  22  23  24  25  26  27  28  29  30  
   31  32  33  34  35  36  37  38  39  40  41  42  43  44  45  46  47  48  49  50  51  52  53  54  55  56  57  58  59  60  
[Printable]
415
ASCA44 KEWX 011920
RWRMX

LATIN AMERICA AND CARIBBEAN REGIONAL WEATHER ROUNDUP
NATIONAL WEATHER SERVICE AUSTIN/SAN ANTONIO TX
200 PM CDT MON SEP 01 2014

NOTE: "FAIR" INDICATED FEW OR NO CLOUDS BELOW 12,000 FEET WITH NO
SIGNIFICANT WEATHER AND/OR OBSTRUCTIONS TO VISIBILITY.

BAJA CALIFORNIA

CITY           SKY/WX    TMP DP  RH WIND       PRES   REMARKS
LORETO         SUNNY     95  70  43 E12       29.75F HX 101
LA PAZ         MOSUNNY   93  68  43 N5        29.81  HX  97
MEXICALI       SUNNY    100  57  23 SE6       29.74  HX  99
S.J. DEL CABO  PTSUNNY   91  72  52 S14       29.82  HX  98
TIJUANA        SUNNY     82  54  36 S7        29.86

NORTHWESTERN MEXICO

CITY           SKY/WX    TMP DP  RH WIND       PRES   REMARKS
CULIACAN       CLOUDY    93  79  62 S6        29.82  HX 110
DURANGO        PTSUNNY   81  50  34 E8        30.19F
GUAYMAS        MOSUNNY   97  81  59 S12       29.72  HX 118
HERMOSILLO     SUNNY    100  68  34 NW7       29.82  HX 106
CD. JUAREZ     SUNNY     95  59  30 NW12      29.97  HX  94
LOS MOCHIS     PTSUNNY   93  75  55 SW10      29.78F HX 104
OBREGON        MOSUNNY   97  72  44 NW3       29.75  HX 105

NORTHEASTERN MEXICO

CITY           SKY/WX    TMP DP  RH WIND       PRES   REMARKS
CHIHUAHUA      MOSUNNY   90  52  27 N14       30.09
MATAMOROS      PTSUNNY   91  79  66 E16       29.91  HX 107
MONTERREY      MOSUNNY   91  64  40 E13       29.89F HX  93
NUEVO LAREDO   SUNNY     99  68  36 SE9       29.86  HX 104
PIEDRAS NEGRAS MOSUNNY   95  72  46 SE9       29.87F HX 103
REYNOSA        MOSUNNY   91  68  46 SE8       29.87  HX  95
SALTILLO       PTSUNNY   88  64  45 N9        30.10F
TORREON        MOSUNNY   91  55  29 CALM      30.02
CD. VICTORIA   MOSUNNY   99  59  26 E16       29.88  HX  98

WESTERN MEXICO

CITY           SKY/WX    TMP DP  RH WIND       PRES   REMARKS
AGUASCALIENTES PTSUNNY   75  48  38 E6        30.21
COLIMA         PTSUNNY   77  72  83 SW7       29.97F
DEL BAJIO      MOSUNNY   79  57  47 E8        30.22F
GUADALAJARA    PTSUNNY   79  59  50 SE8       30.13
MANZANILLO     PTSUNNY   90  77  66 SE12      29.81  HX 102
MAZATLAN       CLOUDY    81  75  83 N6        29.81F
P. VALLARTA    CLOUDY    86  75  70 CALM      29.81F HX  95
URUAPAN        PTSUNNY   73  63  68 SE7       30.15F
ZACATECAS      MOSUNNY   79  46  31 E17       30.25

CENTRAL MEXICO

CITY           SKY/WX    TMP DP  RH WIND       PRES   REMARKS
CUERNAVACA     PTSUNNY   77  63  61 S5        30.08F
MEXICO CITY    PTSUNNY   73  54  49 NE12      30.26F
MORELIA        PTSUNNY   77  63  61 NW2       30.17
POZA RICA      CLOUDY    95  73  49 NE8       29.89F HX 105
PUEBLA         PTSUNNY   73  52  46 SE3       30.29F
QUERETARO      PTSUNNY   77  52  41 NE15      30.23F
S. LUIS POTOSI MOSUNNY   81  46  30 E8        30.19
TAMPICO        PTSUNNY   91  70  49 E9        29.87F HX  97
TOLUCA         PTSUNNY   70  43  37 CALM      30.33

SOUTHERN MEXICO

CITY           SKY/WX    TMP DP  RH WIND       PRES   REMARKS
ACAPULCO       LGT RAIN  79  75  89 E3        29.91S
B. DE HUATULCO CLOUDY    75  73  94 CALM      29.96
OAXACA         PTSUNNY   77  59  53 NW5       30.13F
P. ESCONDIDO   CLOUDY    79  73  83 W15       30.05F
ZIHUATANEJO    CLOUDY    77  75  94 E7        29.91F

YUCATAN PENINSULA

CITY           SKY/WX    TMP DP  RH WIND       PRES   REMARKS
CAMPECHE       LGT RAIN  79  79 100 SE12      29.89F
CANCUN         CLOUDY    84  77  79 SE9       30.00F HX  94
CHETUMAL       CLOUDY    86  79  79 E18       29.92F HX  99
CD. DEL CARMEN CLOUDY    81  73  78 S7        29.89
COZUMEL        CLOUDY    84  77  79 E14       29.99F HX  94
MERIDA         CLOUDY    75  75 100 E7        29.96F
MINATITLAN     CLOUDY    86  73  66 S12       29.84  HX  93
TAPACHULA      PTSUNNY   90  75  62 CALM      29.89F HX 100
TUX. GUTIERREZ CLOUDY    82  70  65 SE6       29.96F
VILLAHERMOSA   CLOUDY    84  75  74 CALM      29.90F HX  92

CENTRAL AMERICA

CITY           SKY/WX    TMP DP  RH WIND       PRES   REMARKS
BELIZE CITY    MOSUNNY   90  77  66 E8        29.91F HX 102
MANAGUA        PTCLDY    91  77  62 E9        29.80F HX 105

CARIBBEAN

CITY           SKY/WX    TMP DP  RH WIND       PRES   REMARKS
ARUBA          MOSUNNY   91  77  62 E25       29.80F HX 105
CURACAO        MOSUNNY   90  79  70 E15       29.86F HX 105
KINGSTON       MOSUNNY   90  79  70 SE24      29.89F HX 105
SAN JUAN       PTSUNNY   86  75  70 E12G17    29.97F HX  95
SANTO DOMINGO  MOSUNNY   88  75  66 S7        29.94S HX  97
ST. CROIX      MOSUNNY   88  75  66 E14       29.99S HX  97
ST. KITTS      MOSUNNY   86  77  74 E16       29.97F HX  97

$$





U.S. Dept. of Commerce
NOAA National Weather Service
1325 East West Highway
Silver Spring, MD 20910
E-mail: w-nws.webmaster@noaa.gov
Page last modified: May 16, 2007
NATIONAL WEATHER SERVICE: for Safety, for Work, for Fun - FOR LIFE